KJ4OVR-WX Weather Reports


time (UTC)temp
F
wind
direction
speed
knots
gust
knots
rain 1hr
in
rain 24hr
in
rain mn
in
humidity
%
barometer
mb
20260504081534 46 0.0 0.0 0.00 0.00 0.00 81 1016.9
20260504081035 46 0.0 0.0 0.00 0.00 0.00 81 1016.9
20260504080536 47 0.0 0.0 0.00 0.00 0.00 81 1016.9
20260504050537 48 0.0 0.0 0.00 0.00 0.00 77 1018.0
20260504045538 48 0.0 0.0 0.00 0.00 0.00 76 1017.9
20260504045037 48 0.0 0.0 0.00 0.00 0.00 75 1017.9
20260504044539 48 0.0 0.0 0.00 0.00 0.00 75 1017.9
20260504044038 48 0.0 0.0 0.00 0.00 0.00 73 1017.9
20260504043539 49 0.0 0.0 0.00 0.00 0.00 73 1017.8
20260504043038 49 0.0 0.0 0.00 0.00 0.00 73 1017.9
20260504042540 49 0.0 0.0 0.00 0.00 0.00 72 1017.8
20260504042038 49 0.0 0.0 0.00 0.00 0.00 72 1017.7
20260504041621 50 0.0 0.0 0.00 0.00 0.00 72 1017.7
20260504041108 50 0.0 0.0 0.00 0.00 0.00 71 1017.7
20260504040538 50 0.0 0.0 0.00 0.00 0.00 71 1017.7
20260504040038 50 0.0 0.0 0.00 0.00 0.00 71 1017.7
20260504035540 50 0.0 0.0 0.00 0.00 0.00 71 1017.6
20260504035039 50 0.0 0.0 0.00 0.00 0.00 67 1017.6
20260504034602 50 0.0 0.0 0.00 0.00 0.00 67 1017.7
20260504034040 50 0.0 0.0 0.00 0.00 0.00 67 1017.8
20260504033538 51 0.0 0.0 0.00 0.00 0.00 67 1017.8
20260504033041 51 0.0 0.0 0.00 0.00 0.00 67 1017.8
20260504032540 51 0.0 0.0 0.00 0.00 0.00 67 1017.8
20260504032140 51 0.0 0.0 0.00 0.00 0.00 67 1017.8
20260504031539 51 0.0 0.0 0.00 0.00 0.00 67 1017.8
20260504031040 51 0.0 0.0 0.00 0.00 0.00 67 1017.8
20260504030539 51 0.0 0.0 0.00 0.00 0.00 70 1017.8
20260504030039 51 0.0 0.0 0.00 0.00 0.00 72 1017.8
20260504025639 51 0.0 0.0 0.00 0.00 0.00 69 1017.9
20260504025040 51 0.0 0.0 0.00 0.00 0.00 67 1017.9
20260504024541 51 0.0 0.0 0.00 0.00 0.00 71 1017.9
20260504024040 52 0.0 0.0 0.00 0.00 0.00 71 1017.9
20260504023540 52 0.0 0.0 0.00 0.00 0.00 67 1017.8
20260504023040 52 0.0 0.0 0.00 0.00 0.00 67 1017.7
20260504022540 52 0.0 0.0 0.00 0.00 0.00 67 1017.7
20260504022042 52 0.0 0.0 0.00 0.00 0.00 67 1017.7
20260504021541 53 0.0 0.0 0.00 0.00 0.00 65 1017.7
20260504021111 53 0.0 0.0 0.00 0.00 0.00 65 1017.7
20260504020540 53 0.0 0.0 0.00 0.00 0.00 64 1017.6
20260504020040 53 0.0 0.0 0.00 0.00 0.00 63 1017.5
20260504015541 54 0.0 0.0 0.00 0.00 0.00 61 1017.3
20260504015041 54 0.0 0.0 0.00 0.00 0.00 60 1017.3
20260504014643 54 0.0 0.0 0.00 0.00 0.00 58 1017.1
20260504014042 55 0.0 0.0 0.00 0.00 0.00 58 1017.1
20260504013541 55 0.0 0.0 0.00 0.00 0.00 57 1017.1
20260504013051 55 0.0 0.0 0.00 0.00 0.00 57 1017.0
20260504012541 56 0.0 0.0 0.00 0.00 0.00 56 1017.0
20260504012040 56 0.0 0.0 0.00 0.00 0.00 56 1016.9
20260504011743 56 0.0 0.0 0.00 0.00 0.00 56 1016.8
20260504011041 57 0.0 0.0 0.00 0.00 0.00 56 1016.7
20260504010541 57 0.0 0.0 0.00 0.00 0.00 55 1016.6
20260504010041 58 0.0 0.0 0.00 0.00 0.00 54 1016.6
20260504005541 58 0.0 0.0 0.00 0.00 0.00 53 1016.5
20260504005041 59 0.0 0.0 0.00 0.00 0.00 53 1016.4
20260504004644 59 0.0 0.0 0.00 0.00 0.00 52 1016.4
20260504004042 60 0.0 0.0 0.00 0.00 0.00 51 1016.3
20260504003542 60 0.0 0.0 0.00 0.00 0.00 51 1016.2
20260504003044 61 0.0 0.0 0.00 0.00 0.00 51 1016.3
20260504002542 61 0.0 0.0 0.00 0.00 0.00 51 1016.3
20260504002142 61 0.0 0.0 0.00 0.00 0.00 50 1016.3
20260504001542 62 0.0 0.0 0.00 0.00 0.00 50 1016.2
20260504001042 62 0.0 0.0 0.00 0.00 0.00 50 1016.2
20260504000542 63 0.0 0.0 0.00 0.00 0.00 49 1016.2
20260504000042 64 0.0 0.0 0.00 0.00 0.00 49 1016.2
20260503235543 64 0.0 0.0 0.00 0.00 0.00 48 1016.2
20260503235043 65 0.0 0.0 0.00 0.00 0.00 48 1016.2
20260503234543 65 0.0 0.0 0.00 0.00 0.00 47 1016.2
20260503234042 65 0.0 0.0 0.00 0.00 0.00 46 1016.3
20260503233543 66 0.0 0.0 0.00 0.00 0.00 46 1016.3
20260503233043 66 0.0 0.0 0.00 0.00 0.00 45 1016.3
20260503232543 67 0.0 0.0 0.00 0.00 0.00 45 1016.3
20260503232043 67 0.0 0.0 0.00 0.00 0.00 45 1016.2
20260503231610 67 0.0 0.0 0.00 0.00 0.00 45 1016.3
20260503231042 68 0.0 0.0 0.00 0.00 0.00 44 1016.3
20260503230543 69 0.0 0.0 0.00 0.00 0.00 43 1016.3
20260503230043 69 0.0 0.0 0.00 0.00 0.00 43 1016.3
20260503225553 69 0.0 0.0 0.00 0.00 0.00 43 1016.3
20260503225147 70 0.0 0.0 0.00 0.00 0.00 43 1016.3
20260503224543 70 0.0 0.0 0.00 0.00 0.00 43 1016.2
20260503224043 70 0.0 0.0 0.00 0.00 0.00 43 1016.3
20260503223545 70 0.0 0.0 0.00 0.00 0.00 42 1016.4
20260503223043 70 0.0 0.0 0.00 0.00 0.00 43 1016.3
20260503222643 70 0.0 0.0 0.00 0.00 0.00 43 1016.4
20260503222044 70 0.0 0.0 0.00 0.00 0.00 43 1016.4
20260503221544 71 0.0 0.0 0.00 0.00 0.00 43 1016.5
20260503221044 71 0.0 0.0 0.00 0.00 0.00 43 1016.4
20260503220545 70 0.0 0.0 0.00 0.00 0.00 43 1016.4
20260503220044 71 0.0 0.0 0.00 0.00 0.00 43 1016.5
20260503215544 71 0.0 0.0 0.00 0.00 0.00 43 1016.5
20260503215045 71 0.0 0.0 0.00 0.00 0.00 43 1016.6
20260503214545 71 0.0 0.0 0.00 0.00 0.00 43 1016.5
20260503214045 70 0.0 0.0 0.00 0.00 0.00 43 1016.7
20260503213544 70 0.0 0.0 0.00 0.00 0.00 43 1016.7
20260503213044 71 0.0 0.0 0.00 0.00 0.00 43 1016.6
20260503212546 71 0.0 0.0 0.00 0.00 0.00 43 1016.7
20260503212044 71 0.0 0.0 0.00 0.00 0.00 43 1016.7
20260503211545 71 0.0 0.0 0.00 0.00 0.00 43 1016.7
20260503211045 70 0.0 0.0 0.00 0.00 0.00 42 1016.8
20260503210545 71 0.0 0.0 0.00 0.00 0.00 43 1016.8
20260503210045 71 0.0 0.0 0.00 0.00 0.00 43 1016.8
20260503205545 71 0.0 0.0 0.00 0.00 0.00 42 1016.8
20260503205045 71 0.0 0.0 0.00 0.00 0.00 43 1017.0
20260503204603 71 0.0 0.0 0.00 0.00 0.00 43 1017.0
20260503204045 71 0.0 0.0 0.00 0.00 0.00 43 1017.2
20260503203545 71 0.0 0.0 0.00 0.00 0.00 43 1017.3
20260503203045 70 0.0 0.0 0.00 0.00 0.00 43 1017.4
20260503202546 70 0.0 0.0 0.00 0.00 0.00 43 1017.5
20260503202045 70 0.0 0.0 0.00 0.00 0.00 42 1017.7
20260503201546 70 0.0 0.0 0.00 0.00 0.00 43 1017.7
20260503201045 70 0.0 0.0 0.00 0.00 0.00 43 1017.8
20260503200546 70 0.0 0.0 0.00 0.00 0.00 43 1017.9
20260503200046 70 0.0 0.0 0.00 0.00 0.00 43 1018.1
20260503195549 70 0.0 0.0 0.00 0.00 0.00 42 1018.3
20260503195046 70 0.0 0.0 0.00 0.00 0.00 42 1018.4
20260503194602 69 0.0 0.0 0.00 0.00 0.00 42 1018.5
20260503194131 69 0.0 0.0 0.00 0.00 0.00 42 1018.6
20260503193546 69 0.0 0.0 0.00 0.00 0.00 43 1018.6
20260503193047 69 0.0 0.0 0.00 0.00 0.00 43 1018.7
20260503192646 70 0.0 0.0 0.00 0.00 0.00 43 1018.8
20260503192046 70 0.0 0.0 0.00 0.00 0.00 43 1018.8
20260503191546 69 0.0 0.0 0.00 0.00 0.00 43 1019.0
20260503191047 69 0.0 0.0 0.00 0.00 0.00 43 1019.2
20260503190546 68 0.0 0.0 0.00 0.00 0.00 43 1019.2
20260503190047 69 0.0 0.0 0.00 0.00 0.00 43 1019.2
20260503185547 69 0.0 0.0 0.00 0.00 0.00 44 1019.3
20260503185048 68 0.0 0.0 0.00 0.00 0.00 45 1019.4
20260503184547 68 0.0 0.0 0.00 0.00 0.00 45 1019.5
20260503184047 68 0.0 0.0 0.00 0.00 0.00 45 1019.5
20260503183604 68 0.0 0.0 0.00 0.00 0.00 43 1019.6
20260503183048 67 0.0 0.0 0.00 0.00 0.00 44 1019.7
20260503182547 67 0.0 0.0 0.00 0.00 0.00 44 1019.7
20260503182048 67 0.0 0.0 0.00 0.00 0.00 43 1019.8
20260503181548 67 0.0 0.0 0.00 0.00 0.00 43 1019.8
20260503181048 67 0.0 0.0 0.00 0.00 0.00 45 1019.9
20260503180548 66 0.0 0.0 0.00 0.00 0.00 43 1020.0
20260503180048 66 0.0 0.0 0.00 0.00 0.00 44 1020.0
20260503175556 66 0.0 0.0 0.00 0.00 0.00 45 1020.1
20260503175048 65 0.0 0.0 0.00 0.00 0.00 44 1020.1
20260503174549 65 0.0 0.0 0.00 0.00 0.00 45 1020.2
20260503174048 66 0.0 0.0 0.00 0.00 0.00 45 1020.3
20260503173549 66 0.0 0.0 0.00 0.00 0.00 46 1020.3
20260503173048 66 0.0 0.0 0.00 0.00 0.00 46 1020.4
20260503172548 65 0.0 0.0 0.00 0.00 0.00 46 1020.6
20260503172048 65 0.0 0.0 0.00 0.00 0.00 45 1020.6
20260503171548 65 0.0 0.0 0.00 0.00 0.00 46 1020.8
20260503171049 64 0.0 0.0 0.00 0.00 0.00 46 1020.8
20260503170549 65 0.0 0.0 0.00 0.00 0.00 47 1020.9
20260503150550 59 0.0 0.0 0.00 0.00 0.00 57 1022.0
20260503150151 59 0.0 0.0 0.00 0.00 0.00 58 1022.0
20260503131053 49 0.0 0.0 0.00 0.00 0.00 92 1022.5
20260503130552 48 0.0 0.0 0.00 0.00 0.00 92 1022.5
20260503130154 48 0.0 0.0 0.00 0.00 0.00 92 1022.5
20260503110555 38 0.0 0.0 0.00 0.00 0.00 90 1022.2